Voltar ao catálogo

FENGYUN 1C DEB *

AtivoPO
NORAD 47005·DEBRIS·🇨🇳 China

Lançado May 10, 1999 de Taiyuan Satellite Launch Center

Loading…

Próximas Passagens (próximas 24 horas)

TLE

EnvelhecendoSource: Space-Track

Época: Sep 7, 2026, 13:49 UTC

1 47005U 99025FAF 26250.57611354  .00002701  00000-0  14452-2 0  9996
2 47005  99.6000   3.3826 0062235 216.6202 156.9904 14.13111906865629

Acompanhe FENGYUN 1C DEB * em tempo real com AllMySat

Download on the App Store